| time (UTC) | temp C | wind direction | speed KPH | gust KPH | rain 1hr cm | rain 24hr cm | rain mn cm | humidity % | barometer mb |
| 20260506114021 | 17 | 122 | 9.7 | 14.5 | 0.00 | 0.69 | 0.03 | 59 | 1003.1 |
| 20260506113502 | 17 | 118 | 8.0 | 12.9 | 0.00 | 0.69 | 0.03 | 59 | 1003.3 |
| 20260506113002 | 17 | 60 | 9.7 | 12.9 | 0.00 | 0.69 | 0.03 | 59 | 1003.1 |
| 20260506112501 | 17 | 22 | 8.0 | 9.7 | 0.00 | 0.69 | 0.03 | 59 | 1003.2 |
| 20260506112001 | 17 | 20 | 6.4 | 11.3 | 0.00 | 0.69 | 0.03 | 58 | 1003.3 |
| 20260506111502 | 17 | 28 | 4.8 | 6.4 | 0.00 | 0.69 | 0.03 | 59 | 1003.3 |
| 20260506111021 | 17 | 268 | 4.8 | 4.8 | 0.00 | 0.69 | 0.03 | 59 | 1003.4 |
| 20260506110502 | 17 | 328 | 3.2 | 3.2 | 0.00 | 0.69 | 0.03 | 61 | 1003.4 |
| 20260506110001 | 17 | 350 | 6.4 | 16.1 | 0.00 | 0.69 | 0.03 | 60 | 1003.3 |
| 20260506105501 | 17 | 72 | 11.3 | 16.1 | 0.00 | 0.69 | 0.03 | 59 | 1003.4 |
| 20260506105001 | 17 | 298 | 3.2 | 8.0 | 0.00 | 0.69 | 0.03 | 60 | 1003.7 |
| 20260506104521 | 17 | 88 | 9.7 | 11.3 | 0.00 | 0.69 | 0.03 | 58 | 1003.7 |
| 20260506104002 | 17 | 38 | 11.3 | 11.3 | 0.00 | 0.69 | 0.03 | 58 | 1003.7 |
| 20260506103501 | 17 | 20 | 9.7 | 9.7 | 0.00 | 0.69 | 0.03 | 59 | 1003.8 |
| 20260506103022 | 17 | 85 | 9.7 | 9.7 | 0.00 | 0.69 | 0.03 | 59 | 1003.9 |
| 20260506102501 | 17 | 12 | 6.4 | 11.3 | 0.00 | 0.69 | 0.03 | 58 | 1004.1 |
| 20260506102001 | 17 | 68 | 6.4 | 9.7 | 0.00 | 0.69 | 0.03 | 57 | 1004.1 |
| 20260506101501 | 17 | 52 | 6.4 | 6.4 | 0.00 | 0.69 | 0.03 | 57 | 1003.9 |
| 20260506101001 | 17 | 12 | 6.4 | 6.4 | 0.00 | 0.69 | 0.03 | 61 | 1004.1 |
| 20260506100501 | 17 | 48 | 8.0 | 8.0 | 0.00 | 0.69 | 0.03 | 59 | 1004.3 |
| 20260506100001 | 17 | 110 | 3.2 | 6.4 | 0.00 | 0.69 | 0.03 | 62 | 1004.2 |
| 20260506095501 | 17 | 332 | 6.4 | 8.0 | 0.00 | 0.69 | 0.03 | 63 | 1004.1 |
| 20260506095002 | 17 | 238 | 1.6 | 4.8 | 0.00 | 0.69 | 0.03 | 63 | 1004.2 |
| 20260506094501 | 17 | 90 | 4.8 | 6.4 | 0.00 | 0.69 | 0.03 | 62 | 1004.2 |
| 20260506094001 | 17 | 25 | 3.2 | 4.8 | 0.00 | 0.69 | 0.03 | 63 | 1004.2 |
| 20260506093501 | 17 | 338 | 6.4 | 6.4 | 0.00 | 0.69 | 0.03 | 63 | 1004.3 |
| 20260506093001 | 16 | 318 | 3.2 | 6.4 | 0.00 | 0.69 | 0.03 | 63 | 1004.3 |
| 20260506092501 | 17 | 20 | 11.3 | 11.3 | 0.00 | 0.69 | 0.03 | 62 | 1004.2 |
| 20260506092001 | 17 | 322 | 4.8 | 6.4 | 0.00 | 0.69 | 0.03 | 62 | 1004.2 |
| 20260506091503 | 17 | 210 | 1.6 | 3.2 | 0.00 | 0.69 | 0.03 | 62 | 1004.1 |
| 20260506091001 | 16 | 318 | 3.2 | 6.4 | 0.00 | 0.69 | 0.03 | 63 | 1004.3 |
| 20260506090501 | 16 | 290 | 3.2 | 4.8 | 0.00 | 0.69 | 0.03 | 63 | 1004.2 |
| 20260506090001 | 17 | 170 | 3.2 | 4.8 | 0.00 | 0.69 | 0.03 | 61 | 1004.2 |
| 20260506085501 | 16 | 348 | 4.8 | 6.4 | 0.00 | 0.69 | 0.03 | 64 | 1004.3 |
| 20260506085021 | 16 | 345 | 6.4 | 8.0 | 0.00 | 0.69 | 0.03 | 62 | 1004.4 |
| 20260506084501 | 16 | 352 | 4.8 | 6.4 | 0.00 | 0.69 | 0.03 | 61 | 1004.4 |
| 20260506084003 | 16 | 78 | 4.8 | 9.7 | 0.00 | 0.69 | 0.03 | 63 | 1004.3 |
| 20260506083502 | 16 | 40 | 9.7 | 11.3 | 0.00 | 0.69 | 0.03 | 64 | 1004.3 |
| 20260506083002 | 16 | 248 | 3.2 | 4.8 | 0.00 | 0.69 | 0.03 | 63 | 1004.4 |
| 20260506082502 | 16 | 352 | 8.0 | 11.3 | 0.00 | 0.69 | 0.03 | 63 | 1004.5 |
| 20260506082002 | 17 | 172 | 3.2 | 6.4 | 0.00 | 0.69 | 0.03 | 61 | 1004.6 |
| 20260506081522 | 16 | 280 | 4.8 | 6.4 | 0.00 | 0.69 | 0.03 | 63 | 1004.5 |
| 20260506081022 | 17 | 335 | 3.2 | 6.4 | 0.00 | 0.69 | 0.03 | 60 | 1004.6 |
| 20260506080502 | 16 | 358 | 3.2 | 4.8 | 0.00 | 0.69 | 0.03 | 64 | 1004.6 |
| 20260506073502 | 16 | 55 | 6.4 | 8.0 | 0.00 | 0.69 | 0.03 | 61 | 1004.7 |
| 20260506073002 | 16 | 28 | 3.2 | 8.0 | 0.00 | 0.69 | 0.03 | 62 | 1004.8 |
| 20260506072502 | 17 | 72 | 4.8 | 6.4 | 0.00 | 0.69 | 0.03 | 63 | 1004.6 |
| 20260506072002 | 17 | 298 | 3.2 | 3.2 | 0.00 | 0.69 | 0.03 | 65 | 1004.8 |
| 20260506071503 | 16 | 245 | 1.6 | 1.6 | 0.00 | 0.69 | 0.03 | 67 | 1005.0 |
| 20260506071002 | 16 | 252 | 1.6 | 1.6 | 0.00 | 0.69 | 0.00 | 64 | 1005.0 |
| 20260506070502 | 16 | 275 | 1.6 | 1.6 | 0.00 | 0.69 | 0.00 | 68 | 1004.9 |
| 20260506062502 | 13 | 105 | 3.2 | 3.2 | 0.00 | 0.69 | 0.00 | 84 | 1005.2 |
| 20260506062002 | 13 | 360 | 1.6 | 1.6 | 0.00 | 0.69 | 0.00 | 85 | 1005.2 |
| 20260506061502 | 13 | 288 | 1.6 | 1.6 | 0.00 | 0.69 | 0.00 | 85 | 1005.1 |
| 20260506061002 | 13 | 155 | 3.2 | 3.2 | 0.00 | 0.69 | 0.00 | 86 | 1005.4 |
| 20260506060502 | 13 | 258 | 1.6 | 1.6 | 0.00 | 0.69 | 0.00 | 86 | 1005.4 |
| 20260506051002 | 11 | 222 | 3.2 | 3.2 | 0.00 | 0.69 | 0.00 | 92 | 1005.6 |
| 20260506050502 | 10 | 250 | 1.6 | 3.2 | 0.00 | 0.69 | 0.00 | 93 | 1005.7 |
| 20260506045002 | 10 | 238 | 3.2 | 3.2 | 0.00 | 0.69 | 0.00 | 94 | 1005.4 |
| 20260506044501 | 10 | 218 | 3.2 | 3.2 | 0.00 | 0.69 | 0.00 | 94 | 1005.3 |
| 20260506044003 | 10 | 210 | 1.6 | 3.2 | 0.00 | 0.69 | 0.00 | 94 | 1005.3 |
| 20260506043501 | 10 | 235 | 1.6 | 1.6 | 0.00 | 0.69 | 0.00 | 94 | 1005.4 |
| 20260506043002 | 10 | 222 | 3.2 | 3.2 | 0.00 | 0.69 | 0.00 | 94 | 1005.4 |
| 20260506042501 | 10 | 250 | 1.6 | 1.6 | 0.00 | 0.69 | 0.00 | 94 | 1005.6 |
| 20260506042002 | 10 | 250 | 1.6 | 1.6 | 0.00 | 0.69 | 0.00 | 94 | 1005.6 |
| 20260506041522 | 10 | 205 | 1.6 | 1.6 | 0.00 | 0.69 | 0.00 | 94 | 1005.8 |
| 20260506041002 | 10 | 232 | 1.6 | 3.2 | 0.00 | 0.69 | 0.00 | 94 | 1005.7 |
| 20260506040501 | 10 | 215 | 1.6 | 3.2 | 0.00 | 0.69 | 0.00 | 94 | 1005.8 |
| 20260506040002 | 10 | 235 | 0.0 | 1.6 | 0.00 | 0.69 | 0.00 | 93 | 1005.8 |
| 20260506035502 | 10 | 208 | 1.6 | 3.2 | 0.00 | 0.69 | 0.00 | 93 | 1005.7 |
| 20260506035002 | 10 | 222 | 1.6 | 1.6 | 0.00 | 0.69 | 0.00 | 93 | 1005.7 |
| 20260506034501 | 10 | 235 | 1.6 | 1.6 | 0.00 | 0.69 | 0.00 | 93 | 1005.7 |
| 20260506034002 | 10 | 238 | 1.6 | 1.6 | 0.00 | 0.69 | 0.00 | 93 | 1005.8 |
| 20260506033502 | 10 | 155 | 3.2 | 4.8 | 0.00 | 0.69 | 0.00 | 93 | 1005.9 |
| 20260506033002 | 10 | 200 | 3.2 | 4.8 | 0.00 | 0.69 | 0.00 | 92 | 1005.9 |
| 20260506032501 | 10 | 202 | 3.2 | 3.2 | 0.00 | 0.69 | 0.00 | 92 | 1006.0 |
| 20260506032001 | 10 | 122 | 4.8 | 6.4 | 0.00 | 0.69 | 0.00 | 91 | 1006.0 |
| 20260506031501 | 10 | 202 | 3.2 | 3.2 | 0.00 | 0.69 | 0.00 | 91 | 1006.0 |
| 20260506031001 | 10 | 125 | 3.2 | 4.8 | 0.00 | 0.69 | 0.00 | 91 | 1006.2 |
| 20260506030501 | 10 | 120 | 3.2 | 4.8 | 0.00 | 0.69 | 0.00 | 91 | 1006.2 |
| 20260506030001 | 10 | 190 | 3.2 | 3.2 | 0.00 | 0.69 | 0.00 | 91 | 1006.4 |
| 20260506025502 | 10 | 158 | 3.2 | 4.8 | 0.00 | 0.69 | 0.00 | 91 | 1006.4 |
| 20260506025002 | 10 | 155 | 3.2 | 3.2 | 0.00 | 0.69 | 0.00 | 92 | 1006.5 |
| 20260506024502 | 10 | 180 | 3.2 | 3.2 | 0.00 | 0.69 | 0.00 | 92 | 1006.5 |
| 20260506024001 | 10 | 240 | 3.2 | 3.2 | 0.00 | 0.69 | 0.00 | 92 | 1006.4 |
| 20260506023502 | 10 | 215 | 3.2 | 4.8 | 0.00 | 0.69 | 0.00 | 92 | 1006.5 |
| 20260506023001 | 10 | 160 | 4.8 | 4.8 | 0.00 | 0.69 | 0.00 | 93 | 1006.5 |
| 20260506022521 | 10 | 228 | 1.6 | 3.2 | 0.00 | 0.69 | 0.00 | 93 | 1006.5 |
| 20260506022001 | 10 | 208 | 3.2 | 3.2 | 0.00 | 0.69 | 0.00 | 94 | 1006.4 |
| 20260506021522 | 10 | 140 | 3.2 | 4.8 | 0.00 | 0.69 | 0.00 | 94 | 1006.1 |
| 20260506021001 | 10 | 145 | 4.8 | 6.4 | 0.00 | 0.69 | 0.00 | 93 | 1006.3 |
| 20260506020521 | 10 | 170 | 3.2 | 3.2 | 0.00 | 0.69 | 0.00 | 94 | 1006.3 |
| 20260506020021 | 10 | 175 | 3.2 | 3.2 | 0.00 | 0.69 | 0.00 | 94 | 1006.4 |
| 20260506015501 | 10 | 228 | 3.2 | 4.8 | 0.00 | 0.69 | 0.00 | 94 | 1006.3 |
| 20260506015021 | 10 | 182 | 3.2 | 3.2 | 0.00 | 0.69 | 0.00 | 94 | 1006.2 |
| 20260506014501 | 10 | 208 | 3.2 | 3.2 | 0.00 | 0.69 | 0.00 | 94 | 1006.4 |
| 20260506014001 | 10 | 215 | 3.2 | 3.2 | 0.00 | 0.69 | 0.00 | 95 | 1006.4 |
| 20260506013521 | 10 | 188 | 3.2 | 3.2 | 0.00 | 0.69 | 0.00 | 95 | 1006.5 |
| 20260506013001 | 10 | 158 | 3.2 | 3.2 | 0.00 | 0.69 | 0.00 | 95 | 1006.5 |
| 20260506012501 | 10 | 162 | 3.2 | 3.2 | 0.00 | 0.69 | 0.00 | 95 | 1006.5 |
| 20260506012001 | 10 | 148 | 3.2 | 3.2 | 0.00 | 0.69 | 0.00 | 94 | 1006.7 |
| 20260506011501 | 10 | 208 | 1.6 | 1.6 | 0.00 | 0.69 | 0.00 | 94 | 1006.4 |
| 20260506011001 | 10 | 222 | 1.6 | 1.6 | 0.00 | 0.69 | 0.00 | 94 | 1006.6 |
| 20260506010501 | 10 | 242 | 0.0 | 1.6 | 0.00 | 0.69 | 0.00 | 94 | 1006.5 |
| 20260506010001 | 10 | 250 | 1.6 | 4.8 | 0.00 | 0.69 | 0.00 | 94 | 1006.5 |
| 20260506005501 | 10 | 195 | 3.2 | 3.2 | 0.00 | 0.69 | 0.00 | 94 | 1006.5 |
| 20260506005001 | 10 | 222 | 1.6 | 3.2 | 0.00 | 0.69 | 0.00 | 94 | 1006.5 |
| 20260506004501 | 10 | 222 | 1.6 | 1.6 | 0.00 | 0.69 | 0.00 | 94 | 1006.5 |
| 20260506004021 | 10 | 175 | 1.6 | 1.6 | 0.00 | 0.69 | 0.00 | 95 | 1006.6 |
| 20260506003501 | 10 | 238 | 1.6 | 3.2 | 0.00 | 0.69 | 0.00 | 95 | 1006.6 |
| 20260506003001 | 10 | 230 | 3.2 | 3.2 | 0.00 | 0.69 | 0.00 | 95 | 1006.7 |
| 20260506002502 | 10 | 192 | 4.8 | 6.4 | 0.00 | 0.69 | 0.00 | 95 | 1006.7 |
| 20260506002001 | 10 | 238 | 1.6 | 3.2 | 0.00 | 0.69 | 0.00 | 95 | 1006.7 |
| 20260506001521 | 10 | 230 | 6.4 | 6.4 | 0.00 | 0.69 | 0.00 | 95 | 1006.8 |
| 20260506001001 | 11 | 258 | 3.2 | 3.2 | 0.00 | 0.69 | 0.00 | 94 | 1006.8 |
| 20260506000501 | 11 | 210 | 4.8 | 6.4 | 0.00 | 0.69 | 0.00 | 94 | 1007.0 |
| 20260506000021 | 11 | 215 | 4.8 | 4.8 | 0.00 | 0.66 | 0.00 | 94 | 1006.8 |
| 20260505235502 | 11 | 178 | 6.4 | 9.7 | 0.00 | 0.66 | 0.00 | 94 | 1006.9 |
| 20260505235002 | 11 | 192 | 4.8 | 6.4 | 0.00 | 0.66 | 0.00 | 94 | 1007.2 |
| 20260505234522 | 11 | 202 | 3.2 | 3.2 | 0.00 | 0.66 | 0.00 | 94 | 1007.0 |
| 20260505234002 | 11 | 205 | 4.8 | 6.4 | 0.00 | 0.66 | 0.00 | 94 | 1007.3 |
| 20260505233502 | 11 | 182 | 6.4 | 8.0 | 0.00 | 0.66 | 0.00 | 95 | 1007.3 |
| 20260505233002 | 11 | 240 | 6.4 | 8.0 | 0.00 | 0.66 | 0.00 | 95 | 1007.0 |
| 20260505232502 | 11 | 242 | 3.2 | 6.4 | 0.00 | 0.66 | 0.00 | 95 | 1007.0 |
| 20260505232002 | 11 | 218 | 4.8 | 9.7 | 0.00 | 0.66 | 0.00 | 95 | 1007.2 |
| 20260505231502 | 11 | 232 | 8.0 | 8.0 | 0.00 | 0.66 | 0.00 | 95 | 1007.3 |
| 20260505231002 | 11 | 192 | 9.7 | 9.7 | 0.00 | 0.66 | 0.00 | 95 | 1007.3 |
| 20260505230502 | 11 | 208 | 6.4 | 6.4 | 0.00 | 0.66 | 0.00 | 95 | 1007.3 |
| 20260505230002 | 11 | 225 | 4.8 | 4.8 | 0.00 | 0.66 | 0.00 | 95 | 1007.4 |
| 20260505225502 | 11 | 260 | 6.4 | 9.7 | 0.00 | 0.66 | 0.00 | 95 | 1007.3 |
| 20260505225002 | 11 | 190 | 6.4 | 8.0 | 0.03 | 0.66 | 0.00 | 94 | 1007.3 |
| 20260505224502 | 11 | 212 | 4.8 | 6.4 | 0.05 | 0.66 | 0.00 | 94 | 1007.0 |
| 20260505224002 | 11 | 238 | 6.4 | 6.4 | 0.08 | 0.66 | 0.00 | 94 | 1007.0 |
| 20260505223502 | 11 | 242 | 4.8 | 8.0 | 0.10 | 0.66 | 0.00 | 94 | 1007.3 |
| 20260505223002 | 11 | 208 | 9.7 | 11.3 | 0.10 | 0.66 | 0.00 | 94 | 1007.3 |
| 20260505222502 | 11 | 218 | 6.4 | 11.3 | 0.13 | 0.66 | 0.00 | 94 | 1007.3 |
| 20260505222002 | 11 | 248 | 4.8 | 8.0 | 0.13 | 0.66 | 0.00 | 94 | 1007.4 |
| 20260505221502 | 11 | 215 | 9.7 | 11.3 | 0.15 | 0.66 | 0.00 | 94 | 1007.6 |
| 20260505221003 | 11 | 225 | 9.7 | 14.5 | 0.15 | 0.66 | 0.00 | 94 | 1007.6 |
| 20260505220502 | 11 | 210 | 6.4 | 9.7 | 0.25 | 0.66 | 0.00 | 94 | 1007.5 |
| 20260505220003 | 11 | 230 | 11.3 | 12.9 | 0.30 | 0.66 | 0.00 | 94 | 1007.6 |
| 20260505215522 | 11 | 232 | 8.0 | 11.3 | 0.33 | 0.66 | 0.00 | 95 | 1007.6 |
| 20260505215022 | 11 | 220 | 9.7 | 14.5 | 0.33 | 0.66 | 0.66 | 95 | 1007.7 |
| 20260505214523 | 11 | 238 | 9.7 | 19.3 | 0.33 | 0.66 | 0.66 | 96 | 1007.7 |
| 20260505214002 | 11 | 248 | 12.9 | 16.1 | 0.30 | 0.64 | 0.64 | 95 | 1007.7 |
| 20260505213502 | 11 | 250 | 9.7 | 14.5 | 0.28 | 0.61 | 0.61 | 95 | 1007.7 |
| 20260505213022 | 11 | 242 | 8.0 | 12.9 | 0.25 | 0.58 | 0.58 | 95 | 1007.6 |
| 20260505212502 | 11 | 222 | 9.7 | 9.7 | 0.23 | 0.56 | 0.56 | 95 | 1007.8 |
| 20260505212002 | 11 | 230 | 9.7 | 11.3 | 0.23 | 0.53 | 0.53 | 94 | 1007.5 |
| 20260505211502 | 11 | 218 | 6.4 | 8.0 | 0.20 | 0.53 | 0.53 | 94 | 1007.4 |
| 20260505211002 | 11 | 240 | 4.8 | 9.7 | 0.20 | 0.53 | 0.53 | 94 | 1007.3 |
| 20260505210502 | 11 | 310 | 6.4 | 14.5 | 0.18 | 0.51 | 0.51 | 93 | 1007.4 |
| 20260505210002 | 12 | 280 | 14.5 | 17.7 | 0.10 | 0.41 | 0.41 | 92 | 1007.3 |
| 20260505205503 | 12 | 218 | 20.9 | 20.9 | 0.05 | 0.38 | 0.38 | 90 | 1007.3 |
| 20260505205002 | 12 | 250 | 8.0 | 19.3 | 0.00 | 0.33 | 0.33 | 90 | 1007.3 |
| 20260505204502 | 12 | 262 | 11.3 | 14.5 | 0.00 | 0.33 | 0.33 | 89 | 1007.0 |
| 20260505204002 | 13 | 240 | 16.1 | 17.7 | 0.00 | 0.33 | 0.33 | 88 | 1007.0 |
| 20260505203522 | 13 | 255 | 9.7 | 19.3 | 0.00 | 0.33 | 0.33 | 86 | 1006.9 |
| 20260505203002 | 13 | 280 | 8.0 | 8.0 | 0.00 | 0.33 | 0.33 | 86 | 1006.8 |
| 20260505202522 | 13 | 208 | 11.3 | 16.1 | 0.00 | 0.33 | 0.33 | 85 | 1007.0 |
| 20260505202002 | 13 | 232 | 8.0 | 17.7 | 0.00 | 0.33 | 0.33 | 83 | 1006.7 |
| 20260505201502 | 13 | 260 | 12.9 | 17.7 | 0.00 | 0.33 | 0.33 | 82 | 1006.6 |
| 20260505201001 | 13 | 228 | 6.4 | 11.3 | 0.00 | 0.33 | 0.33 | 81 | 1006.5 |
| 20260505200501 | 13 | 288 | 9.7 | 20.9 | 0.00 | 0.33 | 0.33 | 82 | 1006.4 |
| 20260505200002 | 13 | 285 | 3.2 | 3.2 | 0.00 | 0.33 | 0.33 | 86 | 1006.0 |
| 20260505195502 | 13 | 285 | 3.2 | 3.2 | 0.00 | 0.33 | 0.33 | 87 | 1005.8 |
| 20260505195001 | 13 | 248 | 6.4 | 8.0 | 0.00 | 0.33 | 0.33 | 87 | 1005.8 |
| 20260505194502 | 14 | 232 | 4.8 | 6.4 | 0.00 | 0.33 | 0.33 | 84 | 1005.6 |
| 20260505194002 | 14 | 232 | 3.2 | 3.2 | 0.00 | 0.33 | 0.33 | 84 | 1005.6 |
| 20260505193502 | 14 | 222 | 1.6 | 3.2 | 0.00 | 0.33 | 0.33 | 85 | 1005.3 |
| 20260505193001 | 14 | 232 | 1.6 | 1.6 | 0.00 | 0.33 | 0.33 | 86 | 1005.6 |
| 20260505192521 | 14 | 202 | 3.2 | 3.2 | 0.00 | 0.33 | 0.33 | 86 | 1005.3 |
| 20260505192002 | 14 | 205 | 3.2 | 4.8 | 0.00 | 0.33 | 0.33 | 83 | 1005.3 |
| 20260505191501 | 14 | 225 | 3.2 | 3.2 | 0.00 | 0.33 | 0.33 | 80 | 1005.2 |
| 20260505191001 | 14 | 255 | 0.0 | 1.6 | 0.00 | 0.33 | 0.33 | 80 | 1005.1 |
| 20260505190502 | 14 | 262 | 0.0 | 1.6 | 0.00 | 0.33 | 0.33 | 80 | 1004.9 |
| 20260505190002 | 14 | 238 | 3.2 | 4.8 | 0.00 | 0.33 | 0.33 | 80 | 1005.1 |
| 20260505185501 | 14 | 232 | 3.2 | 3.2 | 0.00 | 0.33 | 0.33 | 79 | 1005.0 |
| 20260505185003 | 15 | 242 | 4.8 | 6.4 | 0.00 | 0.33 | 0.33 | 78 | 1005.1 |
| 20260505184501 | 15 | 238 | 3.2 | 3.2 | 0.00 | 0.33 | 0.33 | 78 | 1004.9 |
| 20260505184021 | 15 | 258 | 4.8 | 6.4 | 0.00 | 0.33 | 0.33 | 78 | 1004.9 |
| 20260505183501 | 15 | 280 | 3.2 | 4.8 | 0.00 | 0.33 | 0.33 | 78 | 1005.0 |
| 20260505183002 | 15 | 272 | 3.2 | 9.7 | 0.00 | 0.33 | 0.33 | 78 | 1004.8 |
| 20260505182501 | 15 | 318 | 4.8 | 8.0 | 0.00 | 0.33 | 0.33 | 79 | 1004.7 |
| 20260505182001 | 15 | 280 | 3.2 | 4.8 | 0.00 | 0.33 | 0.33 | 80 | 1004.8 |
| 20260505181501 | 15 | 258 | 6.4 | 8.0 | 0.00 | 0.33 | 0.33 | 83 | 1004.7 |
| 20260505181001 | 15 | 288 | 6.4 | 11.3 | 0.00 | 0.33 | 0.33 | 83 | 1004.8 |
| 20260505180501 | 15 | 280 | 4.8 | 9.7 | 0.00 | 0.33 | 0.33 | 83 | 1004.6 |
| 20260505180021 | 15 | 280 | 4.8 | 8.0 | 0.00 | 0.33 | 0.33 | 82 | 1004.6 |
| 20260505175501 | 15 | 295 | 4.8 | 8.0 | 0.00 | 0.33 | 0.33 | 82 | 1004.4 |
| 20260505175021 | 16 | 295 | 6.4 | 6.4 | 0.00 | 0.33 | 0.33 | 80 | 1004.2 |
| 20260505174501 | 16 | 262 | 4.8 | 8.0 | 0.00 | 0.33 | 0.33 | 78 | 1004.2 |
| 20260505174001 | 16 | 308 | 9.7 | 14.5 | 0.00 | 0.33 | 0.33 | 76 | 1004.3 |
| 20260505173501 | 16 | 328 | 6.4 | 6.4 | 0.00 | 0.33 | 0.33 | 77 | 1004.3 |
| 20260505173001 | 16 | 348 | 8.0 | 9.7 | 0.00 | 0.33 | 0.33 | 75 | 1003.9 |
| 20260505172522 | 17 | 300 | 8.0 | 12.9 | 0.00 | 0.33 | 0.33 | 74 | 1003.9 |
| 20260505172002 | 17 | 330 | 3.2 | 4.8 | 0.00 | 0.33 | 0.33 | 74 | 1004.1 |
| 20260505171501 | 17 | 285 | 3.2 | 4.8 | 0.00 | 0.33 | 0.33 | 74 | 1004.1 |
| 20260505171002 | 17 | 330 | 3.2 | 4.8 | 0.00 | 0.33 | 0.33 | 75 | 1003.9 |
| 20260505170501 | 17 | 358 | 4.8 | 6.4 | 0.00 | 0.33 | 0.33 | 76 | 1003.9 |
| 20260505170002 | 16 | 338 | 6.4 | 6.4 | 0.00 | 0.33 | 0.33 | 76 | 1004.1 |
| 20260505165501 | 16 | 335 | 4.8 | 8.0 | 0.00 | 0.33 | 0.33 | 76 | 1003.9 |
| 20260505165002 | 16 | 342 | 9.7 | 11.3 | 0.00 | 0.33 | 0.33 | 75 | 1004.1 |
| 20260505164501 | 16 | 348 | 3.2 | 3.2 | 0.00 | 0.33 | 0.33 | 79 | 1003.9 |
| 20260505164002 | 16 | 308 | 3.2 | 3.2 | 0.00 | 0.33 | 0.33 | 80 | 1004.2 |
| 20260505163501 | 16 | 335 | 4.8 | 6.4 | 0.00 | 0.33 | 0.33 | 79 | 1004.1 |
| 20260505163001 | 16 | 22 | 8.0 | 9.7 | 0.00 | 0.33 | 0.33 | 78 | 1004.2 |
| 20260505162502 | 16 | 288 | 4.8 | 6.4 | 0.00 | 0.33 | 0.33 | 78 | 1004.2 |
| 20260505162001 | 15 | 278 | 4.8 | 6.4 | 0.03 | 0.33 | 0.33 | 80 | 1004.3 |
| 20260505161501 | 15 | 350 | 3.2 | 4.8 | 0.03 | 0.33 | 0.33 | 81 | 1004.1 |
| 20260505161022 | 15 | 35 | 4.8 | 6.4 | 0.03 | 0.33 | 0.33 | 81 | 1004.2 |
| 20260505160502 | 15 | 330 | 6.4 | 6.4 | 0.08 | 0.33 | 0.33 | 83 | 1004.2 |
| 20260505153003 | 14 | 205 | 4.8 | 4.8 | 0.25 | 0.33 | 0.33 | 86 | 1004.6 |
| 20260505152521 | 14 | 270 | 1.6 | 3.2 | 0.30 | 0.33 | 0.33 | 87 | 1004.6 |
| 20260505152001 | 13 | 260 | 3.2 | 4.8 | 0.33 | 0.33 | 0.33 | 88 | 1004.9 |
| 20260505151502 | 13 | 210 | 3.2 | 3.2 | 0.30 | 0.30 | 0.30 | 87 | 1004.8 |
| 20260505151002 | 13 | 230 | 1.6 | 3.2 | 0.30 | 0.30 | 0.30 | 89 | 1005.0 |
| 20260505150502 | 13 | 212 | 3.2 | 4.8 | 0.30 | 0.30 | 0.30 | 88 | 1004.9 |
| 20260505140502 | 21 | 255 | 9.7 | 9.7 | 0.00 | 0.00 | 0.00 | 44 | 1003.4 |
| 20260505124502 | 23 | 5 | 6.4 | 8.0 | 0.00 | 0.00 | 0.00 | 38 | 1003.4 |
| 20260505123502 | 23 | 15 | 8.0 | 12.9 | 0.00 | 0.00 | 0.00 | 38 | 1003.6 |
| 20260505123002 | 23 | 218 | 6.4 | 8.0 | 0.00 | 0.00 | 0.00 | 38 | 1003.5 |
| 20260505122522 | 23 | 248 | 3.2 | 4.8 | 0.00 | 0.00 | 0.00 | 38 | 1003.7 |
| 20260505122002 | 23 | 170 | 6.4 | 9.7 | 0.00 | 0.00 | 0.00 | 38 | 1003.6 |
| 20260505121502 | 23 | 245 | 3.2 | 3.2 | 0.00 | 0.00 | 0.00 | 38 | 1003.6 |
| 20260505121022 | 23 | 42 | 4.8 | 4.8 | 0.00 | 0.00 | 0.00 | 37 | 1003.5 |
| 20260505120502 | 23 | 20 | 9.7 | 14.5 | 0.00 | 0.00 | 0.00 | 38 | 1003.6 |
| 20260505120002 | 23 | 18 | 4.8 | 9.7 | 0.00 | 0.00 | 0.00 | 38 | 1003.7 |
| 20260505115502 | 23 | 308 | 9.7 | 9.7 | 0.00 | 0.00 | 0.00 | 38 | 1003.8 |
| 20260505115002 | 23 | 302 | 4.8 | 12.9 | 0.00 | 0.00 | 0.00 | 38 | 1003.7 |
| 20260505114501 | 23 | 22 | 9.7 | 12.9 | 0.00 | 0.00 | 0.00 | 38 | 1003.8 |